User: anonymous   Login
Location: Newark
(16.3678°N, 77.8722°E)
Time: 15:46:26
(UTC+00:00)
Language:

Explorer 7 - Orbit

View from above orbital plane
View from above orbital plane
View from above satellite
View from above satellite

Ground track
Ground track

The orbit data is extracted from the following two-line orbital elements,

1    22U 59009A   19339.46449958 -.00000062  00000-0  18464-4 0  9997
2    22  50.2853 296.8558 0139946 233.8716 124.9211 14.95002100196158
Epoch (UTC): 05 December 2019 11:08:52
Eccentricity: 0.0139946
inclination: 50.2853°
perigee height: 485 km
apogee height: 680 km
right ascension of ascending node: 296.8558°
argument of perigee: 233.8716°
revolutions per day: 14.95002100
mean anomaly at epoch: 124.9211°
orbit number at epoch: 19615

The dashed part of the orbit path shows where the satellite is in the earth's shadow,  

DLR